NUSANTARA TIGA (SATRIA)

Last updated on Wed Sep 17 2025 00:02:51 GMT+0000 (Coordinated Universal Time)

1 57045U 23086A 25259.32715341 -.00000254 00000+0 00000+0 0 9999 2 57045 0.0070 32.3627 0002549 256.1694 330.7635 1.00268403 7015
UTC large
Height (km)
Speed (km/s)
/
Latitude / Longitude
Inclination (degrees)
Orbital Period (minutes)
Azimuth
Elevation
Range (km)
Doppler Factor

Next 0 passes for location: London (51.5072 / 0.1276)

Sorry there are no passes over London.